Home   Weather   Nantes   Past weeks

Flag for France Past Weather in Nantes, Pays de la Loire, France — Yesterday and Last 2 Weeks

Now
52 °F

Passing clouds.


Feels Like: 51 °F
Forecast: 41 / 65 °F
Wind: 3 mph from North

Location: Nantes Airport

Current Time: Oct 2, 2016 at 12:21:00 AM

Latest Report: Oct 1, 2016 at 11:30 PM


Visibility: N/A

Pressure: 29.98 "Hg

Humidity: 82%

Dew Point: 46 °F

Location of NantesLocation

Past Weather in Nantes — Graph

°F

Nantes Temperature Yesterday

Maximum temperature yesterday: 64 °F (at 2:30 PM)
Minimum temperature yesterday: 48 °F (at 11:00 PM)
Average temperature yesterday: 56 °F

High & Low Weather Summary for the Past Weeks

 TemperatureHumidityPressure
High79 °F (Sep 24, 2:00 PM)100% (Sep 19, 3:30 AM)30.42 "Hg (Sep 19, 3:30 AM)
Low48 °F (Sep 23, 8:30 AM)38% (Sep 25, 2:30 PM)29.83 "Hg (Oct 1, 5:00 AM)
Average61 °F79%30.14 "Hg
* Reported Sep 16 11:00 PM — Oct 1 11:00 PM, Nantes, Weather by CustomWeather, © 2016

Note: Actual official high and low records may vary slightly from our data, if they occured in-between our weather recording intervals... More about our weather records

Advertising

Nantes Weather History for the Previous 24 Hours

Scroll right to see more
 ConditionsComfort  
Time TempWeatherWind HumidityBarometerVisibility
11:00 PM
Sat, Oct 1
48 °FClear.3 mph87%29.95 "Hg10 mi
10:30 PM50 °FClear.3 mph88%29.95 "Hg10 mi
10:00 PM50 °FClear.3 mph88%29.95 "Hg10 mi
9:30 PM52 °FClear.3 mph82%29.95 "Hg10 mi
9:00 PM52 °FPassing clouds.3 mph82%29.92 "HgN/A
8:30 PM54 °FPassing clouds.3 mph72%29.92 "HgN/A
8:00 PM55 °FClear.5 mph67%29.92 "Hg10 mi
7:30 PM59 °FSunny.8 mph63%29.92 "Hg10 mi
7:00 PM61 °FSunny.9 mph59%29.89 "Hg10 mi
6:30 PM61 °FSunny.13 mph59%29.89 "Hg10 mi
6:00 PM63 °FPassing clouds.12 mph56%29.89 "HgN/A
5:30 PM63 °FScattered clouds.15 mph56%29.89 "HgN/A
5:00 PM64 °FPartly sunny.15 mph56%29.89 "HgN/A
4:30 PM63 °FBroken clouds.15 mph59%29.89 "HgN/A
4:00 PM63 °FBroken clouds.12 mph64%29.86 "HgN/A
3:30 PM64 °FBroken clouds.14 mph64%29.86 "HgN/A
3:00 PM64 °FPartly sunny.12 mph68%29.86 "HgN/A
2:30 PM64 °FMostly cloudy.14 mph73%29.86 "HgN/A
2:00 PM63 °FBroken clouds.9 mph88%29.86 "HgN/A
1:30 PM63 °FBroken clouds.9 mph88%29.86 "HgN/A
1:00 PM61 °FLight rain. Overcast.10 mph83%29.86 "HgN/A
12:30 PM61 °FLight rain. Mostly cloudy.8 mph83%29.89 "HgN/A
12:00 PM59 °FPartly sunny.12 mph88%29.86 "HgN/A
11:30 AM61 °FCool.7 mph83%29.86 "HgN/A
11:00 AM57 °FPartly sunny.10 mph94%29.86 "HgN/A
10:30 AM59 °FCool.8 mph88%29.86 "HgN/A
10:00 AM57 °FSunny.7 mph94%29.86 "Hg10 mi
9:30 AM55 °FSunny.7 mph94%29.86 "Hg10 mi
9:00 AM54 °FCool.5 mph94%29.86 "HgN/A
8:30 AM52 °FBroken clouds.1 mph94%29.83 "HgN/A
8:00 AM52 °FPartly cloudy.5 mph94%29.83 "HgN/A
7:30 AM52 °FCool.7 mph94%29.83 "HgN/A
7:00 AM52 °FClear.6 mph94%29.83 "Hg10 mi
6:30 AM52 °FClear.6 mph100%29.83 "Hg10 mi
6:00 AM52 °FClear.5 mph100%29.83 "Hg10 mi
5:30 AM52 °FClear.3 mph94%29.83 "Hg10 mi
5:00 AM52 °FLight rain. Overcast.3 mph100%29.83 "Hg6 mi
4:30 AM52 °FOvercast.3 mph94%29.86 "HgN/A
4:00 AM50 °FClear.5 mph100%29.86 "Hg10 mi
3:30 AM50 °FPassing clouds.6 mph100%29.86 "HgN/A
3:00 AM50 °FFog.3 mph100%29.86 "Hg2 mi
2:30 AM50 °FDense fog.2 mph94%29.89 "Hg1 mi
2:00 AM50 °FClear.2 mph94%29.89 "HgN/A
1:30 AM52 °FClear.2 mph94%29.89 "Hg10 mi
1:00 AM52 °FClear.2 mph100%29.89 "Hg10 mi
12:30 AM52 °FLow clouds.No wind100%29.89 "HgN/A
12:00 AM54 °FMostly cloudy.No wind94%29.92 "Hg6 mi
Weather by CustomWeather, © 2016

See weather overviewHow to use our weather pages